Weather History for McCook, NE

Change the Weather History Date:

Friday, May 30, 2014

  Actual Average Record
Temperature  
Mean Temperature 75 °F 64 °F  
Max Temperature 89 °F 78 °F 102 °F (1928)
Min Temperature 61 °F 51 °F 37 °F (1992)
Cooling Degree Days 10    
Growing Degree Days 26 (Base 50)    
Moisture  
Dew Point 57 °F    
Average Humidity 53    
Maximum Humidity 84    
Minimum Humidity 28    
Precipitation  
Precipitation 0.00 in 0.12 in 1.29 in (1990)
Month to date precipitation 2.71 3.02  
Year to date precipitation 4.57 7.82  
Sea Level Pressure  
Sea Level Pressure 29.93 in    
Wind  
Wind Speed 11 mph (SE)    
Max Wind Speed 17 mph    
Max Gust Speed 28 mph    
Visibility 10 miles    
Events      
T = Trace of Precipitation, MM = Missing Value Source: NWS Daily Summary

Daily Weather History Graph

Daily Weather History Graph

Search for Another Location

Airport:

Trip Planner

Search our weather history database for the weather conditions in past years. The results will help you decide how hot, cold, wet, or windy it might be!

Date:

Astronomy

May. 30, 2014 Rise Set
Actual Time 6:15 AM CDT 9:04 PM CDT
Civil Twilight 5:43 AM CDT 9:36 PM CDT
Nautical Twilight 5:03 AM CDT 10:17 PM CDT
Astronomical Twilight 4:17 AM CDT 11:03 PM CDT
Moon 8:01 AM CDT (5/30) 10:42 PM CDT (5/30)
Length of Visible Light 15h 52m
Length of Day
14h 48m
Waxing Crescent, 4% of the Moon is Illuminated
May 30
Waxing Crescent
Jun 5
First Quarter
Jun 12
Full
Jun 19
Last Quarter
Jun 27
New

Hourly Weather History & Observations

Time (CDT) Temp. Heat Index Dew Point Humidity Pressure Visibility Wind Dir Wind Speed Gust Speed Precip Events Conditions
12:53 AM 71.1 °F - 57.9 °F 63% 29.93 in 10.0 mi SE 10.4 mph - N/A   Clear
1:53 AM 69.1 °F - 57.9 °F 68% 29.93 in 10.0 mi SSE 10.4 mph - N/A   Clear
2:53 AM 68.0 °F - 57.0 °F 68% 29.92 in 10.0 mi SSE 10.4 mph - N/A   Clear
3:53 AM 66.0 °F - 57.0 °F 73% 29.93 in 10.0 mi SE 4.6 mph - N/A   Clear
4:53 AM 64.9 °F - 57.0 °F 75% 29.94 in 10.0 mi SSE 4.6 mph - N/A   Clear
5:53 AM 63.0 °F - 57.0 °F 81% 29.95 in 10.0 mi SE 3.5 mph - N/A   Clear
6:53 AM 62.1 °F - 57.0 °F 84% 29.96 in 10.0 mi East 4.6 mph - N/A   Clear
7:53 AM 66.0 °F - 59.0 °F 78% 29.97 in 10.0 mi ESE 6.9 mph - N/A   Clear
8:53 AM 73.9 °F - 60.1 °F 62% 29.97 in 10.0 mi SSE 9.2 mph - N/A   Clear
9:53 AM 79.0 °F - 60.1 °F 52% 29.96 in 10.0 mi South 13.8 mph - N/A   Clear
10:53 AM 82.9 °F 82.6 °F 57.9 °F 42% 29.95 in 10.0 mi SSE 15.0 mph - N/A   Clear
11:53 AM 84.9 °F 84.4 °F 59.0 °F 41% 29.95 in 10.0 mi SE 15.0 mph - N/A   Clear
12:53 PM 86.0 °F 84.9 °F 57.2 °F 37% 30.02 in 10.0 mi SE 17.3 mph - N/A   Clear
1:53 PM 86.0 °F 85.0 °F 57.9 °F 38% 29.93 in 10.0 mi SE 17.3 mph 24.2 mph N/A   Scattered Clouds
2:53 PM 88.0 °F 86.1 °F 55.0 °F 32% 29.92 in 10.0 mi SE 16.1 mph 27.6 mph N/A   Mostly Cloudy
3:53 PM 89.1 °F - 52.0 °F 28% 29.89 in 10.0 mi ESE 16.1 mph - N/A   Scattered Clouds
5:53 PM 86.0 °F - 50.0 °F 29% 29.88 in 10.0 mi SE 16.1 mph 25.3 mph N/A   Clear
6:53 PM 84.9 °F - 50.0 °F 30% 29.88 in 10.0 mi ESE 15.0 mph 23.0 mph N/A   Clear
7:53 PM 82.9 °F 81.9 °F 54.0 °F 37% 29.88 in 10.0 mi SE 16.1 mph - N/A   Clear
8:53 PM 80.1 °F 80.2 °F 55.9 °F 43% 29.90 in 10.0 mi SE 13.8 mph - N/A   Clear
9:53 PM 75.9 °F - 55.9 °F 50% 29.92 in 10.0 mi ESE 10.4 mph - N/A   Clear
10:53 PM 73.9 °F - 57.0 °F 55% 29.95 in 10.0 mi SE 11.5 mph - N/A   Mostly Cloudy
11:53 PM 73.0 °F - 57.9 °F 59% 29.95 in 10.0 mi SE 12.7 mph - N/A   Clear